Mason City, IA

5:02 AM CDT on October 20, 2017 (GMT -0500)
Mason City Municipal

Weather History for KMCW - December, 2013

Change the Weather History Date:

Monday, December 2, 2013

  Actual Average Record
Temperature  
Mean Temperature 32 °F 24 °F  
Max Temperature 41 °F 33 °F 64 °F (1998)
Min Temperature 22 °F 16 °F -16 °F (1919)
Degree Days  
Heating Degree Days 33 41  
Month to date heating degree days 70 81  
Since 1 July heating degree days 1734 1761  
Cooling Degree Days 0 0  
Month to date cooling degree days 0 0  
Year to date cooling degree days 718 616  
Moisture  
Dew Point 31 °F    
Average Humidity 88    
Maximum Humidity 96    
Minimum Humidity 79    
Precipitation  
Precipitation T in 0.05 in 0.40 in (1990)
Month to date precipitation T 0.10  
Year to date precipitation 37.77 34.06  
Snow  
Snow 0.00 in 0.30 in 4.00 in (1990)
Month to date snowfall 0.0 0.6  
Since 1 July snowfall 1.5 5.3  
Snow Depth 0.00 in    
Sea Level Pressure  
Sea Level Pressure 29.68 in    
Wind  
Wind Speed 11 mph (SE)    
Max Wind Speed 22 mph    
Max Gust Speed 27 mph    
Visibility 4 miles    
Events Rain    
T = Trace of Precipitation, MM = Missing Value Source: NWS Daily Summary

Daily Weather History Graph

Daily Weather History Graph

Search for Another Location

Airport or City:

Trip Planner

Search our weather history database for the weather conditions in past years. The results will help you decide how hot, cold, wet, or windy it might be!

Date:

Astronomy

Dec. 02, 2013 Rise Set
Actual Time 7:26 AM CST 4:38 PM CST
Civil Twilight 6:54 AM CST 5:10 PM CST
Nautical Twilight 6:19 AM CST 5:46 PM CST
Astronomical Twilight 5:44 AM CST 6:20 PM CST
Moon 6:51 AM CST (12/2) 4:43 PM CST (12/2)
Length of Visible Light 10h 16m
Length of Day
9h 12m
Waning Crescent, 0% of the Moon is Illuminated
Dec 2
Waning Crescent
Dec 2
New
Dec 9
First Quarter
Dec 17
Full
Dec 25
Last Quarter

Hourly Weather History & Observations

Time (CST) Temp. Windchill Dew Point Humidity Pressure Visibility Wind Dir Wind Speed Gust Speed Precip Events Conditions
12:53 AM 23.0 °F 18.4 °F 21.9 °F 96% 29.93 in 5.0 mi SSE 3.5 mph - N/A   Clear
1:53 AM 23.0 °F - 21.0 °F 92% 29.91 in 4.0 mi Calm Calm - N/A   Clear
2:53 AM 27.0 °F 20.5 °F 25.0 °F 92% 29.88 in 4.0 mi SSE 5.8 mph - N/A   Clear
3:53 AM 28.0 °F 21.7 °F 26.1 °F 92% 29.86 in 4.0 mi SE 5.8 mph - N/A   Partly Cloudy
4:53 AM 28.9 °F 21.9 °F 27.0 °F 92% 29.84 in 4.0 mi SSE 6.9 mph - N/A   Overcast
5:53 AM 30.0 °F 22.4 °F 28.0 °F 92% 29.81 in 5.0 mi SE 8.1 mph - N/A   Overcast
6:53 AM 30.0 °F 21.7 °F 28.0 °F 92% 29.80 in 4.0 mi SSE 9.2 mph - N/A   Clear
7:53 AM 30.0 °F 21.7 °F 28.0 °F 92% 29.77 in 3.0 mi SE 9.2 mph - N/A   Scattered Clouds
8:53 AM 32.0 °F 22.5 °F 28.9 °F 88% 29.75 in 3.0 mi SE 12.7 mph - N/A   Clear
9:53 AM 34.0 °F 24.6 °F 30.0 °F 85% 29.73 in 4.0 mi SE 13.8 mph - N/A   Mostly Cloudy
10:53 AM 36.0 °F 27.5 °F 30.9 °F 82% 29.74 in 5.0 mi SSE 12.7 mph - N/A   Haze
11:53 AM 37.0 °F 29.3 °F 32.0 °F 82% 29.69 in 5.0 mi SE 11.5 mph 20.7 mph 0.00 in   Overcast
12:53 PM 37.0 °F 27.7 °F 34.0 °F 89% 29.65 in 4.0 mi SE 16.1 mph - 0.00 in Rain Light Rain
1:53 PM 39.0 °F 30.3 °F 34.0 °F 82% 29.61 in 4.0 mi SE 16.1 mph 25.3 mph 0.00 in   Haze
2:53 PM 39.9 °F 31.4 °F 34.0 °F 79% 29.59 in 5.0 mi SE 16.1 mph 23.0 mph N/A   Haze
3:09 PM 39.9 °F 31.8 °F 35.1 °F 83% 29.58 in 5.0 mi SE 15.0 mph - N/A   Haze
3:40 PM 39.0 °F 30.3 °F 34.0 °F 82% 29.57 in 5.0 mi SE 16.1 mph 25.3 mph N/A   Haze
3:53 PM 39.0 °F 31.0 °F 34.0 °F 82% 29.59 in 4.0 mi SE 13.8 mph - N/A   Haze
4:13 PM 37.9 °F 29.6 °F 34.0 °F 86% 29.59 in 4.0 mi SSE 13.8 mph - N/A   Overcast
4:28 PM 37.9 °F 30.5 °F 34.0 °F 86% 29.59 in 4.0 mi SSE 11.5 mph - N/A   Overcast
4:53 PM 37.9 °F 29.2 °F 34.0 °F 86% 29.61 in 6.0 mi SSE 15.0 mph - N/A   Overcast
5:16 PM 37.9 °F 30.0 °F 34.0 °F 86% 29.59 in 5.0 mi SSE 12.7 mph - N/A   Overcast
5:53 PM 37.9 °F 29.2 °F 34.0 °F 86% 29.60 in 5.0 mi SE 15.0 mph - N/A   Overcast
6:37 PM 37.0 °F 27.7 °F 33.1 °F 86% 29.58 in 5.0 mi SSE 16.1 mph - N/A   Scattered Clouds
6:53 PM 36.0 °F 26.3 °F 33.1 °F 89% 29.60 in 5.0 mi SSE 16.1 mph - N/A   Clear
7:53 PM 34.0 °F 25.5 °F 32.0 °F 92% 29.62 in 4.0 mi SE 11.5 mph - N/A   Clear
8:53 PM 33.1 °F 26.1 °F 32.0 °F 96% 29.63 in 3.0 mi ESE 8.1 mph - N/A   Clear
9:11 PM 33.1 °F 26.1 °F 32.0 °F 96% 29.61 in 2.5 mi SE 8.1 mph - N/A   Clear
9:53 PM 33.1 °F 23.9 °F 32.0 °F 96% 29.61 in 2.5 mi SE 12.7 mph - N/A   Clear
10:53 PM 32.0 °F 24.8 °F 30.9 °F 96% 29.61 in 2.5 mi SE 8.1 mph - N/A   Clear
11:53 PM 30.9 °F 23.5 °F 30.9 °F 100% 29.61 in 1.8 mi ESE 8.1 mph - N/A   Scattered Clouds